Location: Worth Mountain WMA
(34.9569°N, 81.4819°W)
Time: 20:31:34
(UTC-05:00)

Lacrosse 5 rocket - Pass Details

Date: 18 August 2017
Orbit: 463 x 638 km, 57.0° (Epoch: 19 November)

Event Time Altitude Azimuth Distance (km) Brightness Sun altitude
Rises 22:11:35 0° 313° (NW) 2,545 6.2 -23.1°
Reaches altitude 10° 22:13:46 10° 306° (NW) 1,683 4.9 -23.5°
Enters shadow 22:17:10 41° 243° (WSW) 738 2.1 -24.0°
